Location: *
(49.9853°N, 3.5569°E)
Time: 16:54:11
(UTC+00:00)

SL-8 R/B - Pass Details

Date: 22 September 2019
Orbit: 657 x 667 km, 48.4° (Epoch: 14 October)

Event Time Altitude Azimuth Distance (km) Brightness Sun altitude
Rises 19:20:54 0° 271° (W) 2,986 8.5 -16.0°
Reaches altitude 10° 19:23:15 10° 270° (W) 2,075 7.4 -16.3°
Maximum altitude 19:28:01 73° 187° (S) 694 3.7 -17.0°
Enters shadow 19:30:06 33° 109° (ESE) 1,101 4.3 -17.4°
